Location: Unspecified
(33.6682°S, 0.0000°E)
Time: 04:20:02
(UTC+00:00)

Vanguard 2 Rocket - Pass Details

Date: 21 June 2019
Orbit: 554 x 3326 km, 32.9° (Epoch: 21 July)

Event Time Altitude Azimuth Distance (km) Brightness Sun altitude
Rises 10:01:18 0° 288° (WNW) 6,462 11.1 26.1°
Reaches altitude 10° 10:06:13 10° 289° (WNW) 5,051 10.7 26.6°
Maximum altitude 10:19:23 76° 11° (N) 1,573 8.9 27.9°
Drops below altitude 10° 10:26:33 10° 96° (E) 2,882 9.8 28.6°
Sets 10:28:39 0° 97° (E) 3,600 10.2 28.7°
